{"data":{"norad_id":52645,"epoch":"2026-05-25T02:22:07.646304Z","epoch_age_seconds":65923,"freshness":"FRESH","line1":"1 52645U 22052AZ  26145.09869961 -.00001113  00000+0 -51814-4 0  9999","line2":"2 52645  53.2125 276.2139 0001399  84.7983 275.3169 15.08842507222664","mean_motion":15.08842507,"eccentricity":0.0001399,"inclination_deg":53.2125,"raan_deg":276.2139,"arg_perigee_deg":84.7983,"mean_anomaly_deg":275.3169,"bstar":-5.1814e-5,"rev_number":22266,"period_min":95.437396104589,"perigee_km":538.76791568428,"apogee_km":540.70353647303,"semimajor_km":6917.8727260787,"source":"CELESTRAK","updated_at":"2026-05-25T13:38:17.207776Z"}}